TimeEST,TemperatureF,Dew PointF,Humidity,Sea Level PressureIn,VisibilityMPH,Wind Direction,Wind SpeedMPH,Gust SpeedMPH,PrecipitationIn,Events,Conditions,WindDirDegrees,DateUTC
12:15 AM,37.4,30.2,75,29.90,10.0,North,5.8,-,N/A,,Partly Cloudy,10,2013-02-13 05:15:00
12:55 AM,37.4,30.2,75,29.91,10.0,NNE,5.8,-,N/A,,Partly Cloudy,20,2013-02-13 05:55:00
1:15 AM,37.4,30.2,75,29.90,10.0,North,6.9,-,N/A,,Mostly Cloudy,10,2013-02-13 06:15:00
1:35 AM,39.2,30.2,70,29.90,10.0,North,6.9,-,N/A,,Mostly Cloudy,360,2013-02-13 06:35:00
2:15 AM,39.2,30.2,70,29.89,10.0,North,8.1,-,N/A,,Partly Cloudy,360,2013-02-13 07:15:00
2:35 AM,39.2,28.4,65,29.88,10.0,North,6.9,-,N/A,,Mostly Cloudy,10,2013-02-13 07:35:00
2:55 AM,37.4,30.2,75,29.87,10.0,North,9.2,-,N/A,,Mostly Cloudy,10,2013-02-13 07:55:00
3:15 AM,37.4,30.2,75,29.86,10.0,NNE,8.1,-,N/A,,Scattered Clouds,20,2013-02-13 08:15:00
3:55 AM,37.4,28.4,70,29.85,10.0,North,6.9,-,N/A,,Scattered Clouds,350,2013-02-13 08:55:00
4:15 AM,39.2,28.4,65,29.84,10.0,North,6.9,-,N/A,,Scattered Clouds,360,2013-02-13 09:15:00
4:35 AM,37.4,28.4,70,29.84,10.0,North,9.2,-,N/A,,Clear,350,2013-02-13 09:35:00
4:55 AM,37.4,28.4,70,29.82,10.0,North,10.4,17.3,N/A,,Mostly Cloudy,360,2013-02-13 09:55:00
5:15 AM,37.4,28.4,70,29.83,10.0,North,8.1,-,N/A,,Overcast,360,2013-02-13 10:15:00
5:35 AM,37.4,28.4,70,29.82,10.0,North,9.2,-,N/A,,Mostly Cloudy,10,2013-02-13 10:35:00
5:56 AM,37.4,28.4,70,29.81,10.0,North,9.2,-,N/A,,Overcast,360,2013-02-13 10:56:00
6:15 AM,37.4,28.4,70,29.82,10.0,NNW,5.8,-,N/A,,Overcast,340,2013-02-13 11:15:00
6:35 AM,35.6,28.4,75,29.83,10.0,NW,5.8,-,N/A,,Mostly Cloudy,320,2013-02-13 11:35:00
7:15 AM,35.6,28.4,75,29.85,10.0,NNW,8.1,-,N/A,,Scattered Clouds,340,2013-02-13 12:15:00
7:35 AM,35.6,26.6,70,29.86,9.0,NNW,5.8,-,N/A,,Mostly Cloudy,340,2013-02-13 12:35:00
7:55 AM,33.8,28.4,81,29.86,2.0,North,6.9,-,N/A,,Overcast,350,2013-02-13 12:55:00
8:15 AM,32.0,28.4,87,29.87,1.2,North,8.1,-,N/A,,Overcast,350,2013-02-13 13:15:00
8:35 AM,32.0,28.4,87,29.87,0.8,NNW,9.2,-,N/A,,Overcast,340,2013-02-13 13:35:00
8:55 AM,32.0,28.4,87,29.88,0.8,North,6.9,-,0.03,,Overcast,350,2013-02-13 13:55:00
9:35 AM,32.0,28.4,87,29.88,1.0,North,6.9,-,0.04,,Overcast,10,2013-02-13 14:35:00
9:55 AM,32.0,28.4,87,29.88,1.0,North,5.8,-,0.04,,Overcast,360,2013-02-13 14:55:00
10:15 AM,32.0,28.4,87,29.89,0.5,NNW,3.5,-,0.01,,Overcast,340,2013-02-13 15:15:00
10:35 AM,32.0,28.4,87,29.89,0.8,NNE,4.6,-,0.01,,Overcast,20,2013-02-13 15:35:00
10:55 AM,33.8,30.2,87,29.89,1.0,North,3.5,-,0.01,,Overcast,10,2013-02-13 15:55:00
11:15 AM,33.8,30.2,87,29.89,3.0,Calm,Calm,-,N/A,,Overcast,0,2013-02-13 16:15:00
11:35 AM,33.8,30.2,87,29.90,2.0,WNW,3.5,-,N/A,,Overcast,290,2013-02-13 16:35:00
11:55 AM,33.8,30.2,87,29.90,2.0,NW,6.9,-,N/A,,Overcast,310,2013-02-13 16:55:00
12:15 PM,33.8,30.2,87,29.89,2.0,WNW,4.6,-,N/A,,Overcast,290,2013-02-13 17:15:00
12:35 PM,33.8,30.2,87,29.88,5.0,SW,3.5,-,N/A,,Partly Cloudy,230,2013-02-13 17:35:00
12:55 PM,33.8,30.2,87,29.87,8.0,SSW,5.8,-,N/A,,Partly Cloudy,210,2013-02-13 17:55:00
1:15 PM,35.6,30.2,81,29.88,10.0,WSW,5.8,-,N/A,,Clear,240,2013-02-13 18:15:00
1:35 PM,37.4,32.0,81,29.87,10.0,SW,8.1,-,N/A,,Mostly Cloudy,230,2013-02-13 18:35:00
1:55 PM,37.4,32.0,81,29.86,10.0,SW,5.8,-,N/A,,Mostly Cloudy,230,2013-02-13 18:55:00
2:15 PM,39.2,32.0,75,29.86,10.0,SW,9.2,-,N/A,,Mostly Cloudy,220,2013-02-13 19:15:00
2:35 PM,39.2,30.2,70,29.87,10.0,SW,8.1,-,N/A,,Mostly Cloudy,220,2013-02-13 19:35:00
2:55 PM,41.0,32.0,70,29.87,10.0,WSW,8.1,-,N/A,,Scattered Clouds,240,2013-02-13 19:55:00
3:15 PM,41.0,30.2,65,29.86,10.0,WSW,6.9,-,N/A,,Partly Cloudy,250,2013-02-13 20:15:00
3:35 PM,42.8,32.0,66,29.87,10.0,WSW,6.9,-,N/A,,Scattered Clouds,250,2013-02-13 20:35:00
3:55 PM,42.8,30.2,61,29.87,10.0,WSW,5.8,-,N/A,,Partly Cloudy,240,2013-02-13 20:55:00
4:15 PM,42.8,30.2,61,29.87,10.0,WSW,6.9,-,N/A,,Partly Cloudy,250,2013-02-13 21:15:00
4:35 PM,42.8,30.2,61,29.87,10.0,WSW,8.1,-,N/A,,Clear,240,2013-02-13 21:35:00
4:55 PM,42.8,30.2,61,29.88,10.0,WSW,9.2,-,N/A,,Clear,240,2013-02-13 21:55:00
5:15 PM,42.8,30.2,61,29.87,10.0,SSW,9.2,-,N/A,,Clear,210,2013-02-13 22:15:00
5:35 PM,41.0,30.2,65,29.88,10.0,SSW,10.4,-,N/A,,Clear,200,2013-02-13 22:35:00
5:55 PM,41.0,30.2,65,29.88,10.0,SSW,10.4,-,N/A,,Clear,210,2013-02-13 22:55:00
6:15 PM,39.2,30.2,70,29.89,10.0,South,6.9,-,N/A,,Clear,190,2013-02-13 23:15:00
6:35 PM,37.4,30.2,75,29.89,10.0,South,6.9,-,N/A,,Clear,180,2013-02-13 23:35:00
6:55 PM,37.4,30.2,75,29.89,10.0,South,5.8,-,N/A,,Clear,180,2013-02-13 23:55:00
7:15 PM,37.4,28.4,70,29.90,10.0,South,5.8,-,N/A,,Clear,170,2013-02-14 00:15:00
7:55 PM,35.6,28.4,75,29.91,10.0,South,6.9,-,N/A,,Clear,170,2013-02-14 00:55:00
8:15 PM,35.6,28.4,75,29.91,10.0,South,5.8,-,N/A,,Clear,170,2013-02-14 01:15:00
8:35 PM,35.6,30.2,81,29.91,10.0,South,8.1,-,N/A,,Clear,170,2013-02-14 01:35:00
8:55 PM,35.6,30.2,81,29.91,10.0,South,8.1,-,N/A,,Clear,170,2013-02-14 01:55:00
9:15 PM,35.6,30.2,81,29.92,10.0,South,6.9,-,N/A,,Clear,170,2013-02-14 02:15:00
9:35 PM,35.6,30.2,81,29.92,10.0,South,8.1,-,N/A,,Clear,170,2013-02-14 02:35:00
9:55 PM,35.6,30.2,81,29.92,10.0,South,9.2,-,N/A,,Clear,180,2013-02-14 02:55:00
10:15 PM,35.6,30.2,81,29.92,10.0,South,10.4,-,N/A,,Clear,180,2013-02-14 03:15:00
10:35 PM,35.6,30.2,81,29.92,10.0,South,10.4,-,N/A,,Clear,180,2013-02-14 03:35:00
10:55 PM,35.6,30.2,81,29.93,10.0,South,6.9,-,N/A,,Clear,180,2013-02-14 03:55:00
11:15 PM,33.8,30.2,87,29.93,10.0,South,8.1,-,N/A,,Clear,180,2013-02-14 04:15:00
11:35 PM,33.8,30.2,87,29.93,10.0,South,9.2,-,N/A,,Clear,180,2013-02-14 04:35:00
11:55 PM,35.6,30.2,81,29.93,10.0,South,9.2,-,N/A,,Clear,180,2013-02-14 04:55:00